Flag for U.S.A. Weather past 2 weeks in Bellingham, Washington, U.S.A.

Now
61 °F

Partly sunny.


Feels Like: 61 °F
Forecast: 48 / 63 °F
Wind: 8 mph from South

Location: Bellingham International Airport

Current Time: Oct 1, 2014 at 5:51:16 PM

Latest Report: Oct 1, 2014 at 4:53 PM


Visibility: 10 mi

Pressure: 30.18 "Hg

Humidity: 60%

Dew point: 47 °F

Location of BellinghamLocation

Historic Weather in Bellingham — Graph

°F

Bellingham temperature yesterday

Maximum temperature yesterday: 64 °F (at 3:53 PM)
Minimum temperature yesterday: 53 °F (at 5:53 AM)
Average temperature yesterday: 58 °F

Past Weeks' High & Low Weather Summary

 TemperatureHumidityPressure
High77 °F (Sep 21, 12:53 PM)100% (Sep 20, 6:01 AM)30.22 "Hg (Sep 20, 6:01 AM)
Low48 °F (Sep 21, 6:53 AM)45% (Sep 21, 2:53 PM)29.65 "Hg (Sep 24, 1:53 AM)
Average60 °F82%29.94 "Hg
* Reported Sep 16 4:53 PM — Oct 1 4:53 PM, Bellingham, Weather by CustomWeather, © 2014

Note: Actual official high and low records may vary slightly from our data, if they occured in-between our weather recording intervals... More about our weather records

Advertising

Bellingham weather history for previous 24 hours

 ConditionsComfort  
Time TempWeatherWind HumidityBarometerVisibility
4:53 PM
Oct 1
61 °FPartly sunny.8 mph60%30.18 "Hg10 mi
3:53 PM61 °FPartly sunny.7 mph65%30.18 "Hg10 mi
2:53 PM61 °FScattered clouds.9 mph65%30.18 "Hg10 mi
1:53 PM61 °FScattered clouds.10 mph67%30.19 "Hg10 mi
12:53 PM61 °FMore clouds than sun.8 mph70%30.20 "Hg10 mi
11:53 AM59 °FPartly sunny.10 mph72%30.21 "Hg10 mi
10:53 AM57 °FOvercast.10 mph78%30.22 "Hg10 mi
9:53 AM58 °FScattered clouds.7 mph78%30.22 "Hg10 mi
8:53 AM57 °FPartly sunny.6 mph81%30.21 "Hg10 mi
7:53 AM55 °FOvercast.5 mph83%30.20 "Hg10 mi
6:53 AM55 °FOvercast.5 mph83%30.20 "Hg10 mi
5:53 AM55 °FOvercast.5 mph87%30.19 "Hg10 mi
4:53 AM53 °FOvercast.No wind89%30.19 "Hg10 mi
3:53 AM54 °FPassing clouds.5 mph86%30.17 "Hg10 mi
2:53 AM54 °FPassing clouds.No wind86%30.18 "Hg10 mi
1:53 AM56 °FOvercast.3 mph81%30.17 "Hg10 mi
12:53 AM55 °FPassing clouds.No wind87%30.16 "Hg10 mi
11:53 PM
Sep 30
56 °FOvercast.6 mph77%30.15 "Hg10 mi
10:53 PM58 °FOvercast.6 mph72%30.14 "Hg10 mi
9:53 PM58 °FOvercast.8 mph72%30.14 "Hg10 mi
8:53 PM58 °FMostly cloudy.5 mph72%30.13 "Hg10 mi
7:53 PM56 °FPassing clouds.No wind81%30.12 "Hg10 mi
6:53 PM59 °FPartly sunny.3 mph69%30.11 "Hg10 mi
5:53 PM62 °FSunny.5 mph60%30.09 "Hg10 mi
Weather by CustomWeather, © 2014

See weather overviewHow to use our weather pages